Regional Weather Roundup
Issued by NWS

Home | Current Version | Previous Version | Graphics & Text | Print | Product List | Glossary On
Versions: 1 2 3 4 5 6 7 8 9 10 11 12 13 14 15 16 17 18 19 20 21 22 23 24 25 26 27 28 29 30 31 32 33 34 35 36 37 38 39 40 41 42 43 44 45 46 47 48 49 50
687
ASUS45 KTFX 281110
RWRMT
MONTANA REGIONAL WEATHER ROUNDUP
NATIONAL WEATHER SERVICE GREAT FALLS MT
500 AM MDT FRI JUL 28 2017

NOTE: "FAIR" INDICATES FEW OR NO CLOUDS BELOW 12000 FEET WITH NO
SIGNIFICANT WEATHER AND/OR OBSTRUCTIONS TO VISIBILITY.

MTZ001>007-043-281200-
WEST OF THE DIVIDE

CITY           SKY/WX    TMP DP  RH WIND       PRES   REMARKS
KALISPELL      CLEAR     51  46  83 VRB3      30.04R
MISSOULA       CLEAR     63  50  62 SE3       30.08R
BUTTE          CLEAR     50  43  77 SE3       30.23R
MULLAN PASS    CLEAR     59  33  37 VRB5      30.20F
DEER LODGE       N/A     52  46  82 CALM      30.18S
EUREKA           N/A     55  45  67 MISG      30.01R
HAMILTON         N/A     63  52  67 S12       30.10S
LIBBY            N/A     52  45  76 CALM      30.02R
$$

MTZ008-052>055-281200-
SOUTHWEST MONTANA

CITY           SKY/WX    TMP DP  RH WIND       PRES   REMARKS
BOZEMAN        CLEAR     53  48  83 SE6       30.16R
DILLON         CLEAR     53  44  71 S9        30.20R
W YELLOWSTONE  FOG       43  43 100 CALM      30.31S VSB<1/4
ENNIS          CLOUDY    50  45  81 CALM      30.26R
THREE FORKS      N/A     56  48  74 CALM      30.13R
$$

MTZ009-010-012-014-046-048-049-054-281200-
EAST SLOPES AND CENTRAL MONTANA

CITY           SKY/WX    TMP DP  RH WIND       PRES   REMARKS
CUT BANK       CLEAR     61  45  55 N17       30.06R
GREAT FALLS    CLOUDY    63  42  46 SW8       30.04R
MALMSTROM AFB  CLOUDY    70  43  37 W8        30.04R
HELENA         PTCLDY    63  50  62 W5        30.11R
CHOTEAU          N/A     63  43  48 S5        30.08R
$$

MTZ011-013-016-021-045-047-050-051-281200-
NORTH CENTRAL MONTANA

CITY           SKY/WX    TMP DP  RH WIND       PRES   REMARKS
HAVRE          PTCLDY    63  48  58 W8        29.93R
LEWISTOWN      CLEAR     60  47  61 CALM      30.05R
N BAR RANCH      N/A     63  45  51 W6        30.08R
CHINOOK          N/A     63  55  77 CALM      29.92R
$$

MTZ017>020-022>027-061-062-281200-
NORTHEAST MONTANA

CITY           SKY/WX    TMP DP  RH WIND       PRES   REMARKS
GLASGOW        CLEAR     61  54  77 E14       29.95S
JORDAN           N/A     60  51  72 E6        29.97R
SIDNEY         CLEAR     61  57  87 CALM      29.99S
WOLF POINT     CLEAR     61  56  83 E3        29.98S
MALTA          PTCLDY    64  55  72 E8        29.92S
PLENTYWOOD       N/A     61  59  94 CALM      30.01S
POPLAR           N/A     61  55  82 E5        29.99S
$$

MTZ028>42-056>058-281200-
SOUTHCENTRAL AND SOUTHEAST MONTANA

CITY           SKY/WX    TMP DP  RH WIND       PRES   REMARKS
BAKER          CLEAR     60  54  80 SE10      30.01S
BILLINGS       CLOUDY    70  48  45 SW15      30.02R
LIVINGSTON     CLEAR     56  46  69 NW17      30.13R
MILES CITY     CLEAR     60  52  74 N6        29.97S
BIG TIMBER     MOCLDY    64  46  52 W21G26    30.11S
FORSYTH          N/A     63  57  82 CALM      29.97R
LAUREL           N/A     65  48  53 CALM      30.02S
$$

REGIONAL REPORTS...DAKOTAS

CITY           SKY/WX    TMP DP  RH WIND       PRES   REMARKS
WILLISTON      CLEAR     59  57  93 N3        30.00R
MINOT          PTCLDY    65  58  78 E5        30.03R
DICKINSON      CLOUDY    64  61  90 E7        30.02R
BEACH            N/A     63  59  88 SE8       30.03S
CROSBY           N/A     57  57 100 S3        30.00S
TIOGA            N/A     55  55 100 NE5       30.04S
WATFORD CITY     N/A     63  63 100 SE6       30.00R
BISMARCK       CLOUDY    67  60  78 NE6       30.05S
GRAND FORKS    PTCLDY    59  58  96 SW3       30.07S
FARGO          CLEAR     60  58  92 CALM      30.08R
BUFFALO SD       N/A     60  56  86 SE8       29.97R
RAPID CITY     CLOUDY    59  56  89 S8        30.04R
$$

REGIONAL REPORTS...WYOMING/IDAHO/WASHINGTON

CITY           SKY/WX    TMP DP  RH WIND       PRES   REMARKS
GILLETTE       CLEAR     61  57  87 S20G28    30.07S
SHERIDAN       MOCLDY    58  52  80 S3        30.04R
BUFFALO WY     CLEAR     58  49  72 N5        30.10R
CODY           CLEAR     62  48  60 SW6       30.14S
YELLOWSTONE LA   N/A     39  39 100 CALM      30.38R
IDAHO FALLS    CLEAR     52  51  97 N5        30.19S
BOISE          CLEAR     70  44  39 SE10      30.00S
SPOKANE        CLEAR     63  38  39 S8        29.99S
$$

REGIONAL REPORTS...ALBERTA

CITY           SKY/WX    TMP DP  RH WIND       PRES   REMARKS
EDMONTON       CLEAR     54  52  94 W7        29.96R
LETHBRIDGE     CLEAR     61  54  77 NW15      30.04R
MEDICINE HAT   CLEAR     68  59  73 NW5       29.93R
WATERTON GATE    N/A     59  54  82 S1          N/A
MILK RIVER       N/A     61  55  82 N15G21      N/A
ONEFOUR          N/A     64  43  45 NW15        N/A
$$

REGIONAL REPORTS...SASKATCHEWAN

CITY           SKY/WX    TMP DP  RH WIND       PRES   REMARKS
SWIFT CURRENT  MOCLDY    66  55  68 S14G20    29.88S
REGINA         PTCLDY    61  57  88 SE10      29.96F
SASKATOON      PTCLDY    70  57  64 SW10G17   29.87R
CYPRESS HILLS    N/A     66  41  39 NW6         N/A
VAL MARIE        N/A     61  52  72 SE2         N/A
ROCKGLEN         N/A     57  54  88 S8          N/A
$$




USA.gov is the U.S. government's official web portal to all federal, state and local government web resources and services.